Starlink 5348

operational
NORAD ID: 56515 Int'l Des: 2023-065 Owner: SPXS Country: US Constellation: starlink
LEOCIRCULAR

About Starlink 5348

Description loading...

Live Position

Loading 3D Globe...

Upcoming Passes

Altitude History

Altitude vs Time

uPlot chart will show altitude changes over time

Two-Line Element Set

1 56515U 23065N 25259.77966584 .00001001 00000-0 89137-4 0 9997
2 56515 43.0025 75.3623 0001402 273.5332 86.5350 15.02537256130463
Epoch: Sep 16, 2025 • Age: 27 hours

Current Status

Altitude 562.5 km
Velocity 7.59 km/s
Sub-Earth Point 40.63°N, 165.97°E
Launch Date May 14, 2023
Age 2.3 years
Type internet

Technical Details

Classification Payload
Mass 305.00 kg
Dry Mass 290.00 kg
Total Mass 305.00 kg
Length 0.20 m
Diameter 2.80 m
Span 9.00 m
Shape Box + pan
Manufacturer SPXS
Bus Type Starlink
Phase Status In Orbit
Owner/State SPXS/US

Large Constellations

Loading constellations...